Location: Miami
(25.7742°N, 80.1936°W)
Time: 01:32:07
(UTC-04:00)

ISS - Pass Details

Date: 19 June 2025
Orbit: 413 x 417 km, 51.6° (Epoch: 16 July)

Event Time Altitude Azimuth Distance (km) Brightness Sun altitude
Exits shadow 03:57:26 13° 85° (E) 1,333 -0.7 -28.1°
Drops below altitude 10° 03:57:58 10° 78° (ENE) 1,487 -0.4 -28.0°
Sets 04:00:27 0° 60° (ENE) 2,354 1.1 -27.7°
